{"data":{"norad_id":62781,"epoch":"2026-09-21T21:06:44.233632Z","epoch_age_seconds":52157,"freshness":"FRESH","line1":"1 62781U 25015Z   26264.87967863  .00009059  00000+0  27893-3 0  9995","line2":"2 62781  53.1592 125.0823 0001229 102.5293 257.5847 15.34400041 94607","mean_motion":15.34400041,"eccentricity":0.0001229,"inclination_deg":53.1592,"raan_deg":125.0823,"arg_perigee_deg":102.5293,"mean_anomaly_deg":257.5847,"bstar":0.00027893,"rev_number":9460,"period_min":93.847755573672,"perigee_km":461.86237909592,"apogee_km":463.54385759701,"semimajor_km":6840.8401183465,"source":"CELESTRAK","updated_at":"2026-09-22T09:00:49.665450Z"}}